EW1669 Weather Reports


Display with metric or nautical units.
time (UTC)temp
F
wind
direction
speed
MPH
gust
MPH
rain 1hr
in
rain 24hr
in
rain mn
in
humidity
%
barometer
mb
20260510194013 55 107 5.0 11.0 0.00 0.00 0.00 80 1022.4
20260510193603 56 71 2.0 16.0 0.00 0.00 0.00 78 1022.8
20260510192746 56 111 5.0 11.0 0.00 0.00 0.00 76 1022.8
20260510192213 56 66 6.0 11.0 0.00 0.00 0.00 76 1023.4
20260510191602 56 16 7.0 13.0 0.00 0.00 0.00 75 1023.8
20260510190954 57 49 5.0 13.0 0.00 0.00 0.00 74 1024.1
20260510190418 58 14 4.0 13.0 0.00 0.00 0.00 71 1023.8
20260510185815 56 44 6.0 10.0 0.00 0.00 0.00 73 1023.8
20260510185422 57 38 5.0 10.0 0.00 0.00 0.00 73 1023.8
20260510184637 56 32 1.0 13.0 0.00 0.00 0.00 71 1023.8
20260510184055 56 33 9.0 19.0 0.00 0.00 0.00 70 1024.1
20260510183444 56 141 7.0 13.0 0.00 0.00 0.00 70 1023.8
20260510183111 57 1 10.0 13.0 0.00 0.00 0.00 69 1024.1
20260510182257 57 135 5.0 16.0 0.00 0.00 0.00 69 1023.8
20260510181810 57 31 1.0 10.0 0.00 0.00 0.00 67 1024.1
20260510181655 57 14 12.0 16.0 0.00 0.00 0.00 67 1024.1
20260510180455 57 357 3.0 10.0 0.00 0.00 0.00 67 1024.1
20260510175901 57 225 1.0 17.0 0.00 0.00 0.00 67 1024.4
20260510175258 58 349 8.0 10.0 0.00 0.00 0.00 65 1024.4
20260510174653 57 13 1.0 11.0 0.00 0.00 0.00 66 1023.8
20260510174314 57 6 0.0 16.0 0.00 0.00 0.00 65 1024.1
20260510173942 57 343 5.0 18.0 0.00 0.00 0.00 67 1023.8
20260510172857 57 342 7.0 18.0 0.00 0.00 0.00 66 1023.8
20260510172248 58 12 10.0 16.0 0.00 0.00 0.00 64 1023.4
20260510171658 58 340 11.0 18.0 0.00 0.00 0.00 63 1023.1
20260510171151 59 24 15.0 18.0 0.00 0.00 0.00 61 1022.8
20260510170534 60 59 4.0 17.0 0.00 0.00 0.00 62 1022.8
20260510170216 60 10 13.0 18.0 0.00 0.00 0.00 61 1022.8
20260510165353 60 1 13.0 22.0 0.00 0.00 0.00 60 1022.4
20260510164754 60 337 11.0 16.0 0.00 0.00 0.00 61 1022.1
20260510164210 60 349 10.0 17.0 0.00 0.00 0.00 59 1022.1
20260510163546 60 357 9.0 19.0 0.00 0.00 0.00 61 1021.7
20260510162945 59 352 10.0 19.0 0.00 0.00 0.00 62 1022.1
20260510162409 59 1 4.0 15.0 0.00 0.00 0.00 63 1021.7
20260510161856 59 5 10.0 17.0 0.00 0.00 0.00 64 1021.7
20260510161317 58 8 11.0 17.0 0.00 0.00 0.00 65 1021.7
20260510160657 59 352 11.0 16.0 0.00 0.00 0.00 63 1021.4
20260510160100 61 3 10.0 23.0 0.00 0.00 0.00 60 1021.7
20260510155513 61 11 6.0 21.0 0.00 0.00 0.00 59 1021.4
20260510155219 61 13 15.0 21.0 0.00 0.00 0.00 60 1021.1
20260510154349 60 356 12.0 23.0 0.00 0.00 0.00 60 1021.1
20260510153802 60 8 11.0 25.0 0.00 0.00 0.00 61 1020.7
20260510153150 59 337 12.0 22.0 0.00 0.00 0.00 63 1020.4
20260510152823 58 30 15.0 18.0 0.00 0.00 0.00 64 1020.4
20260510151956 58 3 11.0 19.0 0.00 0.00 0.00 65 1020.7
20260510151350 57 348 14.0 23.0 0.00 0.00 0.00 66 1020.7
20260510150754 57 26 16.0 23.0 0.00 0.00 0.00 68 1020.4
20260510150151 57 341 11.0 21.0 0.00 0.00 0.00 69 1020.4
20260510145558 57 333 12.0 25.0 0.00 0.00 0.00 68 1020.0
20260510144955 57 347 19.0 25.0 0.00 0.00 0.00 68 1020.0
20260510144357 57 339 14.0 21.0 0.00 0.00 0.00 69 1019.7
20260510143801 57 343 13.0 23.0 0.00 0.00 0.00 70 1019.7
20260510143155 58 337 15.0 22.0 0.00 0.00 0.00 70 1019.7
20260510142601 57 358 15.0 22.0 0.00 0.00 0.00 71 1019.7
20260510142011 57 335 9.0 16.0 0.00 0.00 0.00 71 1019.4
20260510141612 56 11 12.0 22.0 0.00 0.00 0.00 72 1019.4
20260510140850 56 342 13.0 22.0 0.00 0.00 0.00 72 1019.7
20260510140327 56 6 14.0 22.0 0.00 0.00 0.00 72 1019.7
20260510135814 56 346 16.0 19.0 0.00 0.00 0.00 72 1019.4
20260510135155 57 337 15.0 19.0 0.00 0.00 0.00 72 1019.4
20260510134545 57 1 11.0 21.0 0.00 0.00 0.00 72 1019.4
20260510134000 57 19 17.0 22.0 0.00 0.00 0.00 72 1019.4
20260510133405 57 3 8.0 22.0 0.00 0.00 0.00 71 1019.4
20260510132758 57 14 14.0 18.0 0.00 0.00 0.00 71 1019.4
20260510132214 57 349 12.0 17.0 0.00 0.00 0.00 71 1019.4
20260510131552 58 336 11.0 18.0 0.00 0.00 0.00 70 1018.7
20260510130952 58 0 8.0 17.0 0.00 0.00 0.00 69 1018.3
20260510130408 58 359 13.0 17.0 0.00 0.00 0.00 69 1018.7
20260510125800 58 351 8.0 16.0 0.00 0.00 0.00 69 1018.3
20260510125158 58 331 12.0 18.0 0.00 0.00 0.00 69 1018.0
20260510124900 58 341 5.0 15.0 0.00 0.00 0.00 68 1017.7
20260510124046 58 336 6.0 14.0 0.00 0.00 0.00 68 1017.7
20260510123718 58 325 10.0 13.0 0.00 0.00 0.00 68 1017.7
20260510122856 57 358 8.0 15.0 0.00 0.00 0.00 67 1017.7
20260510122236 57 330 9.0 15.0 0.00 0.00 0.00 66 1017.3
20260510121653 57 9 9.0 15.0 0.00 0.00 0.00 66 1017.7
20260510121100 57 338 5.0 15.0 0.00 0.00 0.00 65 1017.7
20260510120501 58 359 5.0 10.0 0.00 0.00 0.00 66 1017.7
20260510115846 58 357 6.0 13.0 0.00 0.00 0.00 66 1017.0
20260510115255 58 329 7.0 14.0 0.00 0.00 0.00 65 1016.7
20260510114909 58 17 11.0 14.0 0.00 0.00 0.00 64 1016.7
20260510114755 58 18 5.0 11.0 0.00 0.00 0.00 63 1016.3
20260510113504 59 354 0.0 11.0 0.00 0.00 0.00 61 1016.3
20260510112954 59 303 6.0 14.0 0.00 0.00 0.00 60 1016.3
20260510112354 59 19 7.0 14.0 0.00 0.00 0.00 58 1016.3
20260510111802 60 352 4.0 13.0 0.00 0.00 0.00 57 1016.3
20260510111152 60 335 7.0 13.0 0.00 0.00 0.00 58 1016.3
20260510110554 61 348 7.0 15.0 0.00 0.00 0.00 65 1016.0
20260510110220 62 4 8.0 15.0 0.00 0.00 0.00 76 1015.6
20260510105613 62 0 6.0 11.0 0.00 0.00 0.00 76 1015.6
20260510104757 62 0 5.0 13.0 0.00 0.00 0.00 76 1015.6
20260510104152 62 7 6.0 18.0 0.00 0.00 0.00 76 1015.3
20260510103555 62 338 10.0 18.0 0.00 0.00 0.00 77 1015.3
20260510102952 62 11 3.0 15.0 0.00 0.00 0.00 77 1015.3
20260510102613 62 352 7.0 10.0 0.00 0.00 0.00 77 1015.0
20260510101756 62 350 6.0 10.0 0.00 0.00 0.00 76 1015.3
20260510101155 62 12 6.0 9.0 0.00 0.00 0.00 74 1015.3
20260510100827 62 341 2.0 6.0 0.00 0.00 0.00 73 1015.3
20260510095953 62 38 0.0 0.0 0.00 0.00 0.00 71 1014.6
20260510095341 62 14 0.0 8.0 0.00 0.00 0.00 70 1014.3
20260510094756 62 349 6.0 8.0 0.00 0.00 0.00 68 1014.3
20260510094156 63 4 0.0 4.0 0.00 0.00 0.00 67 1013.9
20260510093553 63 21 0.0 10.0 0.00 0.00 0.00 65 1013.9
20260510093445 64 4 7.0 10.0 0.00 0.00 0.00 63 1013.9
20260510092402 64 6 4.0 7.0 0.00 0.00 0.00 61 1013.9
20260510092036 64 13 0.0 3.0 0.00 0.00 0.00 59 1013.9
20260510091156 64 21 1.0 8.0 0.00 0.00 0.00 56 1013.9
20260510090600 65 24 0.0 2.0 0.00 0.00 0.00 53 1013.6
20260510090219 65 15 0.0 6.0 0.00 0.00 0.00 49 1013.6
20260510085359 66 51 5.0 6.0 0.00 0.00 0.00 47 1013.9
20260510084756 66 7 1.0 8.0 0.00 0.00 0.00 44 1013.9
20260510084155 66 343 6.0 8.0 0.00 0.00 0.00 42 1013.6
20260510083820 67 5 0.0 6.0 0.00 0.00 0.00 38 1013.6
20260510083035 67 5 5.0 9.0 0.00 0.00 0.00 37 1013.3
20260510082450 67 72 0.0 4.0 0.00 0.00 0.00 35 1013.3
20260510081913 67 17 0.0 0.0 0.00 0.00 0.00 33 1013.3
20260510081248 67 349 0.0 1.0 0.00 0.00 0.00 32 1013.6
20260510080907 68 4 0.0 4.0 0.00 0.00 0.00 31 1013.6
20260510080058 68 346 0.0 3.0 0.00 0.00 0.00 30 1013.6
20260510075454 69 354 0.0 1.0 0.00 0.00 0.00 29 1013.3
20260510075124 70 41 0.0 3.0 0.00 0.00 0.00 28 1013.3
20260510074245 71 14 2.0 8.0 0.00 0.00 0.00 27 1013.3
20260510073914 71 14 0.0 11.0 0.00 0.00 0.00 26 1013.6
20260510073111 72 5 0.0 9.0 0.00 0.00 0.00 24 1013.6
20260510072445 72 17 4.0 8.0 0.00 0.00 0.00 24 1013.3
20260510071856 72 12 0.0 1.0 0.00 0.00 0.00 23 1013.9
20260510071256 70 4 0.0 2.0 0.00 0.00 0.00 23 1013.9
20260510070649 70 42 0.0 3.0 0.00 0.00 0.00 24 1013.6
20260510070051 70 357 0.0 1.0 0.00 0.00 0.00 23 1013.3
20260510065458 70 30 0.0 0.0 0.00 0.00 0.00 23 1013.3
20260510065116 71 10 0.0 2.0 0.00 0.00 0.00 23 1013.6
20260510064242 73 355 0.0 0.0 0.00 0.00 0.00 21 1013.3
20260510063928 72 353 0.0 0.0 0.00 0.00 0.00 21 1013.3
20260510063058 74 31 0.0 0.0 0.00 0.00 0.00 21 1013.3
20260510062500 75 161 0.0 0.0 0.00 0.00 0.00 19 1012.9
20260510061907 75 149 0.0 0.0 0.00 0.00 0.00 19 1012.6
20260510061254 74 154 0.0 0.0 0.00 0.00 0.00 20 1012.6
20260510060655 74 144 0.0 0.0 0.00 0.00 0.00 20 1012.6
20260510060113 74 127 0.0 0.0 0.00 0.00 0.00 21 1012.6
20260510055455 74 134 0.0 0.0 0.00 0.00 0.00 20 1012.6
20260510054903 74 3 0.0 0.0 0.00 0.00 0.00 20 1012.3
20260510054355 74 3 0.0 0.0 0.00 0.00 0.00 20 1012.6
20260510054038 75 3 0.0 0.0 0.00 0.00 0.00 20 1012.6
20260510053249 74 3 0.0 0.0 0.00 0.00 0.00 20 1012.6
20260510052701 76 3 0.0 0.0 0.00 0.00 0.00 19 1012.6
20260510052113 76 3 0.0 0.0 0.00 0.00 0.00 20 1012.6
20260510051716 78 3 0.0 0.0 0.00 0.00 0.00 18 1012.9
20260510050853 79 4 0.0 1.0 0.00 0.00 0.00 18 1012.6
20260510050252 81 3 0.0 9.0 0.00 0.00 0.00 16 1012.9
20260510045650 81 78 0.0 18.0 0.00 0.00 0.00 15 1012.9
20260510045053 79 66 1.0 13.0 0.00 0.00 0.00 17 1012.6
20260510044445 76 357 0.0 7.0 0.00 0.00 0.00 18 1012.6
20260510043857 72 350 2.0 4.0 0.00 0.00 0.00 20 1012.9
20260510043254 70 8 0.0 0.0 0.00 0.00 0.00 24 1012.9
20260510042657 71 204 0.0 0.0 0.00 0.00 0.00 24 1012.6
20260510042054 71 204 0.0 0.0 0.00 0.00 0.00 23 1012.6
20260510041506 72 204 0.0 0.0 0.00 0.00 0.00 23 1012.3
20260510040852 72 204 0.0 0.0 0.00 0.00 0.00 21 1011.9
20260510040252 72 204 0.0 0.0 0.00 0.00 0.00 21 1012.3
20260510035919 73 204 0.0 0.0 0.00 0.00 0.00 23 1012.3
20260510035111 73 204 0.0 0.0 0.00 0.00 0.00 21 1012.3
20260510034511 72 204 0.0 0.0 0.00 0.00 0.00 22 1012.3
20260510034113 72 213 0.0 0.0 0.00 0.00 0.00 23 1012.3
20260510033250 71 215 0.0 0.0 0.00 0.00 0.00 22 1012.3
20260510032658 72 215 0.0 0.0 0.00 0.00 0.00 22 1012.3
20260510032315 73 215 0.0 0.0 0.00 0.00 0.00 21 1012.3
20260510031457 74 215 0.0 0.0 0.00 0.00 0.00 20 1011.9
20260510030852 75 209 0.0 0.0 0.00 0.00 0.00 20 1012.3
20260510030254 76 203 0.0 0.0 0.00 0.00 0.00 19 1011.9
20260510025654 76 203 0.0 0.0 0.00 0.00 0.00 19 1011.9
20260510025312 78 203 0.0 0.0 0.00 0.00 0.00 18 1011.6
20260510024511 77 203 0.0 0.0 0.00 0.00 0.00 18 1011.6
20260510023853 78 151 0.0 0.0 0.00 0.00 0.00 17 1011.6
20260510023516 78 168 0.0 0.0 0.00 0.00 0.00 17 1011.2
20260510022700 79 142 0.0 0.0 0.00 0.00 0.00 17 1011.2
20260510022051 79 205 0.0 0.0 0.00 0.00 0.00 16 1011.2
20260510021714 79 198 0.0 0.0 0.00 0.00 0.00 16 1011.2
20260510020856 80 186 0.0 0.0 0.00 0.00 0.00 16 1011.2
20260510020519 80 204 0.0 0.0 0.00 0.00 0.00 15 1011.2
20260510015657 80 202 0.0 0.0 0.00 0.00 0.00 15 1010.9
20260510015059 81 192 0.0 0.0 0.00 0.00 0.00 15 1011.2
20260510014452 82 193 0.0 0.0 0.00 0.00 0.00 15 1011.2
20260510013851 83 202 0.0 0.0 0.00 0.00 0.00 13 1010.6
20260510013254 83 191 0.0 2.0 0.00 0.00 0.00 13 1010.9
20260510012656 84 199 1.0 2.0 0.00 0.00 0.00 13 1010.6
20260510012112 84 354 0.0 0.0 0.00 0.00 0.00 13 1010.9
20260510011712 85 214 0.0 8.0 0.00 0.00 0.00 13 1010.9
20260510010847 83 196 0.0 0.0 0.00 0.00 0.00 15 1011.2
20260510010252 83 208 0.0 0.0 0.00 0.00 0.00 15 1011.2
20260510010129 84 207 0.0 8.0 0.00 0.00 0.00 14 1010.9
20260510005053 84 203 1.0 6.0 0.00 0.00 0.00 14 1010.9
20260510004714 84 192 2.0 6.0 0.00 0.00 0.00 14 1011.2
20260510003856 85 188 0.0 1.0 0.00 0.00 0.00 14 1010.9
20260510003245 85 216 0.0 1.0 0.00 0.00 0.00 13 1011.2
20260510002655 86 219 0.0 0.0 0.00 0.00 0.00 13 1011.2
20260510002102 86 198 0.0 0.0 0.00 0.00 0.00 14 1011.2
20260510001451 86 219 0.0 10.0 0.00 0.00 0.00 14 1010.9
20260510000855 86 182 6.0 10.0 0.00 0.00 0.00 13 1011.2
20260510000250 86 190 2.0 10.0 0.00 0.00 0.00 14 1011.2
20260509235648 86 226 0.0 6.0 0.00 0.00 0.00 14 1010.9
20260509235051 87 194 1.0 3.0 0.00 0.00 0.00 13 1011.2
20260509234955 87 193 0.0 0.0 0.00 0.00 0.00 14 1010.9
20260509233854 87 183 0.0 0.0 0.00 0.00 0.00 15 1010.9
20260509233306 87 236 0.0 7.0 0.00 0.00 0.00 13 1011.2
20260509232701 87 227 3.0 7.0 0.00 0.00 0.00 12 1010.9
20260509232055 87 133 0.0 7.0 0.00 0.00 0.00 13 1010.9
20260509231713 88 181 2.0 14.0 0.00 0.00 0.00 13 1010.9
20260509231006 89 196 0.0 7.0 0.00 0.00 0.00 12 1011.2
20260509230852 90 229 7.0 14.0 0.00 0.00 0.00 12 1011.2
20260509225653 91 199 0.0 10.0 0.00 0.00 0.00 12 1010.9
20260509225056 92 220 6.0 10.0 0.00 0.00 0.00 11 1011.2
20260509224721 92 209 0.0 2.0 0.00 0.00 0.00 11 1011.2
20260509224056 91 212 0.0 2.0 0.00 0.00 0.00 11 1010.9
20260509223302 92 201 1.0 2.0 0.00 0.00 0.00 11 1011.2
20260509222653 91 212 0.0 1.0 0.00 0.00 0.00 11 1011.2
20260509222052 90 201 0.0 8.0 0.00 0.00 0.00 11 1011.2
20260509221510 89 197 0.0 1.0 0.00 0.00 0.00 11 1011.2
20260509220855 90 227 0.0 0.0 0.00 0.00 0.00 11 1011.2
20260509220225 90 242 0.0 2.0 0.00 0.00 0.00 12 1011.2
20260509215653 89 339 0.0 0.0 0.00 0.00 0.00 12 1011.2
20260509215306 88 194 0.0 0.0 0.00 0.00 0.00 13 1011.6
20260509214452 89 128 0.0 0.0 0.00 0.00 0.00 12 1011.9
20260509213844 89 148 0.0 0.0 0.00 0.00 0.00 11 1011.6
20260509213252 89 236 0.0 3.0 0.00 0.00 0.00 11 1011.9
20260509212650 91 177 1.0 3.0 0.00 0.00 0.00 11 1011.6
20260509212049 91 162 0.0 0.0 0.00 0.00 0.00 11 1011.9
20260509211452 93 240 0.0 0.0 0.00 0.00 0.00 10 1012.3
20260509210850 93 197 0.0 0.0 0.00 0.00 0.00 10 1012.3
20260509210329 93 240 0.0 1.0 0.00 0.00 0.00 10 1012.3
20260509205804 93 350 0.0 11.0 0.00 0.00 0.00 10 1012.6
20260509205516 93 263 4.0 11.0 0.00 0.00 0.00 10 1012.3
20260509204654 92 231 0.0 2.0 0.00 0.00 0.00 10 1012.3
20260509204051 92 19 0.0 3.0 0.00 0.00 0.00 11 1012.3
20260509203453 92 325 1.0 3.0 0.00 0.00 0.00 10 1012.9
20260509202852 91 201 0.0 9.0 0.00 0.00 0.00 12 1012.6
20260509202254 92 246 3.0 9.0 0.00 0.00 0.00 11 1012.9
20260509201658 93 321 0.0 0.0 0.00 0.00 0.00 12 1013.3
20260509201032 92 247 0.0 0.0 0.00 0.00 0.00 11 1012.9
20260509200451 91 357 0.0 9.0 0.00 0.00 0.00 11 1013.3
20260509195853 93 344 0.0 0.0 0.00 0.00 0.00 11 1012.9
20260509195247 92 165 0.0 1.0 0.00 0.00 0.00 11 1012.9
20260509194658 90 241 0.0 1.0 0.00 0.00 0.00 12 1013.3